Time,TemperatureF,DewpointF,PressureIn,WindDirection,WindDirectionDegrees,WindSpeedMPH,WindSpeedGustMPH,Humidity,HourlyPrecipIn,Conditions,Clouds,dailyrainin,SoftwareType,DateUTC
2013-09-13 00:02:00,57.4,43.8,30.15,North,0,1.1,1.6,60,0.00,,,0.00,WUHU216HW,2013-09-13 05:02:00,
2013-09-13 00:07:00,57.2,43.6,30.16,North,0,0.4,1.6,60,0.00,,,0.00,WUHU216HW,2013-09-13 05:07:00,
2013-09-13 00:12:00,57.1,43.4,30.15,North,0,0.0,1.1,60,0.00,,,0.00,WUHU216HW,2013-09-13 05:12:00,
2013-09-13 00:17:00,57.1,43.7,30.16,North,0,1.6,1.6,61,0.00,,,0.00,WUHU216HW,2013-09-13 05:17:00,
2013-09-13 00:22:00,56.9,44.0,30.15,North,0,2.5,2.5,62,0.00,,,0.00,WUHU216HW,2013-09-13 05:22:00,
2013-09-13 00:27:00,56.5,44.0,30.16,North,0,1.8,2.5,63,0.00,,,0.00,WUHU216HW,2013-09-13 05:27:00,
2013-09-13 00:32:00,56.3,43.9,30.15,NNE,23,1.1,2.2,63,0.00,,,0.00,WUHU216HW,2013-09-13 05:32:00,
2013-09-13 00:37:00,56.2,44.1,30.16,North,0,1.8,2.0,64,0.00,,,0.00,WUHU216HW,2013-09-13 05:37:00,
2013-09-13 00:42:00,56.2,44.9,30.15,North,0,3.4,3.4,66,0.00,,,0.00,WUHU216HW,2013-09-13 05:42:00,
2013-09-13 00:47:00,56.0,44.4,30.16,North,0,2.9,3.4,65,0.00,,,0.00,WUHU216HW,2013-09-13 05:47:00,
2013-09-13 00:52:00,56.0,44.7,30.16,NNE,23,1.8,3.4,66,0.00,,,0.00,WUHU216HW,2013-09-13 05:52:00,
2013-09-13 00:57:00,55.8,45.4,30.16,North,0,2.9,3.8,68,0.00,,,0.00,WUHU216HW,2013-09-13 05:57:00,
2013-09-13 01:02:00,55.8,44.6,30.16,North,0,1.8,3.8,66,0.00,,,0.00,WUHU216HW,2013-09-13 06:02:00,
2013-09-13 01:07:00,55.8,44.6,30.16,North,0,2.2,2.9,66,0.00,,,0.00,WUHU216HW,2013-09-13 06:07:00,
2013-09-13 01:12:00,55.6,45.3,30.16,North,0,2.7,2.7,68,0.00,,,0.00,WUHU216HW,2013-09-13 06:12:00,
2013-09-13 01:17:00,55.6,45.3,30.16,North,0,3.1,3.1,68,0.00,,,0.00,WUHU216HW,2013-09-13 06:17:00,
2013-09-13 01:22:00,55.4,45.5,30.16,North,0,3.1,3.8,69,0.00,,,0.00,WUHU216HW,2013-09-13 06:22:00,
2013-09-13 01:27:00,55.4,44.6,30.16,NNE,23,3.6,3.8,67,0.00,,,0.00,WUHU216HW,2013-09-13 06:27:00,
2013-09-13 01:32:00,55.3,45.3,30.16,North,0,2.9,3.6,69,0.00,,,0.00,WUHU216HW,2013-09-13 06:32:00,
2013-09-13 01:37:00,55.1,44.7,30.16,North,0,1.6,3.6,68,0.00,,,0.00,WUHU216HW,2013-09-13 06:37:00,
2013-09-13 01:42:00,55.1,45.5,30.16,North,0,3.8,3.8,70,0.00,,,0.00,WUHU216HW,2013-09-13 06:42:00,
2013-09-13 01:47:00,54.9,44.9,30.16,NNE,23,1.8,3.8,69,0.00,,,0.00,WUHU216HW,2013-09-13 06:47:00,
2013-09-13 01:52:00,54.7,44.4,30.16,NE,45,1.8,3.4,68,0.00,,,0.00,WUHU216HW,2013-09-13 06:52:00,
2013-09-13 02:00:00,54.7,44.7,30.17,North,0,2.2,3.4,69,0.00,,,0.00,WUHU216HW,2013-09-13 07:00:00,
2013-09-13 02:05:00,54.5,45.0,30.16,NNE,23,2.5,4.0,70,0.00,,,0.00,WUHU216HW,2013-09-13 07:05:00,
2013-09-13 02:10:00,54.5,45.4,30.16,NE,45,2.7,3.1,71,0.00,,,0.00,WUHU216HW,2013-09-13 07:10:00,
2013-09-13 02:15:00,54.4,45.6,30.17,North,0,2.5,3.4,72,0.00,,,0.00,WUHU216HW,2013-09-13 07:15:00,
2013-09-13 02:20:00,54.4,45.6,30.17,NNE,23,2.7,3.8,72,0.00,,,0.00,WUHU216HW,2013-09-13 07:20:00,
2013-09-13 02:25:00,54.2,45.7,30.17,NNE,23,3.4,3.8,73,0.00,,,0.00,WUHU216HW,2013-09-13 07:25:00,
2013-09-13 02:32:00,54.2,45.4,30.17,NNE,23,2.2,3.8,72,0.00,,,0.00,WUHU216HW,2013-09-13 07:32:00,
2013-09-13 02:37:00,54.0,45.6,30.16,NNE,23,1.8,2.7,73,0.00,,,0.00,WUHU216HW,2013-09-13 07:37:00,
2013-09-13 02:42:00,53.8,45.7,30.16,NNE,23,3.4,3.4,74,0.00,,,0.00,WUHU216HW,2013-09-13 07:42:00,
2013-09-13 02:47:00,53.6,45.2,30.17,NNE,23,2.7,3.6,73,0.00,,,0.00,WUHU216HW,2013-09-13 07:47:00,
2013-09-13 02:52:00,53.6,45.5,30.16,North,0,2.9,3.6,74,0.00,,,0.00,WUHU216HW,2013-09-13 07:52:00,
2013-09-13 02:57:00,53.6,45.2,30.16,NE,45,3.6,3.6,73,0.00,,,0.00,WUHU216HW,2013-09-13 07:57:00,
2013-09-13 03:02:00,53.6,45.5,30.16,NE,45,2.5,3.6,74,0.00,,,0.00,WUHU216HW,2013-09-13 08:02:00,
2013-09-13 03:07:00,53.6,45.2,30.17,NE,45,3.4,3.8,73,0.00,,,0.00,WUHU216HW,2013-09-13 08:07:00,
2013-09-13 03:12:00,53.5,45.0,30.16,NE,45,3.4,3.8,73,0.00,,,0.00,WUHU216HW,2013-09-13 08:12:00,
2013-09-13 03:17:00,53.3,44.5,30.16,ENE,68,3.6,4.0,72,0.00,,,0.00,WUHU216HW,2013-09-13 08:17:00,
2013-09-13 03:22:00,53.3,44.8,30.16,ENE,68,3.4,4.0,73,0.00,,,0.00,WUHU216HW,2013-09-13 08:22:00,
2013-09-13 03:27:00,53.1,44.3,30.16,NNE,23,3.1,3.6,72,0.00,,,0.00,WUHU216HW,2013-09-13 08:27:00,
2013-09-13 03:32:00,52.9,44.2,30.16,NE,45,2.5,3.8,72,0.00,,,0.00,WUHU216HW,2013-09-13 08:32:00,
2013-09-13 03:37:00,52.7,44.0,30.16,NE,45,2.5,3.8,72,0.00,,,0.00,WUHU216HW,2013-09-13 08:37:00,
2013-09-13 03:42:00,52.6,44.2,30.16,NE,45,2.2,3.1,73,0.00,,,0.00,WUHU216HW,2013-09-13 08:42:00,
2013-09-13 03:47:00,52.6,44.9,30.16,ENE,68,2.2,3.1,75,0.00,,,0.00,WUHU216HW,2013-09-13 08:47:00,
2013-09-13 03:52:00,52.4,44.7,30.16,NE,45,3.1,3.6,75,0.00,,,0.00,WUHU216HW,2013-09-13 08:52:00,
2013-09-13 03:57:00,52.2,44.2,30.16,ENE,68,3.1,3.8,74,0.00,,,0.00,WUHU216HW,2013-09-13 08:57:00,
2013-09-13 04:02:00,52.2,44.6,30.16,NE,45,1.8,3.8,75,0.00,,,0.00,WUHU216HW,2013-09-13 09:02:00,
2013-09-13 04:07:00,52.2,44.6,30.16,ENE,68,3.4,3.4,75,0.00,,,0.00,WUHU216HW,2013-09-13 09:07:00,
2013-09-13 04:12:00,52.0,44.4,30.16,NNE,23,2.5,4.3,75,0.00,,,0.00,WUHU216HW,2013-09-13 09:12:00,
2013-09-13 04:17:00,52.0,44.4,30.16,ENE,68,2.2,4.3,75,0.00,,,0.00,WUHU216HW,2013-09-13 09:17:00,
2013-09-13 04:22:00,52.0,44.4,30.16,NNE,23,1.8,3.4,75,0.00,,,0.00,WUHU216HW,2013-09-13 09:22:00,
2013-09-13 04:27:00,51.8,44.2,30.16,ENE,68,1.3,3.4,75,0.00,,,0.00,WUHU216HW,2013-09-13 09:27:00,
2013-09-13 04:32:00,51.8,43.8,30.16,ENE,68,1.8,1.8,74,0.00,,,0.00,WUHU216HW,2013-09-13 09:32:00,
2013-09-13 04:37:00,51.7,43.7,30.16,ENE,68,0.9,1.8,74,0.00,,,0.00,WUHU216HW,2013-09-13 09:37:00,
2013-09-13 04:42:00,51.5,43.5,30.16,NNE,23,0.9,1.3,74,0.00,,,0.00,WUHU216HW,2013-09-13 09:42:00,
2013-09-13 04:47:00,51.5,43.5,30.16,NNE,23,0.0,1.3,74,0.00,,,0.00,WUHU216HW,2013-09-13 09:47:00,
2013-09-13 04:52:00,51.3,43.3,30.16,NNE,23,0.0,0.9,74,0.00,,,0.00,WUHU216HW,2013-09-13 09:52:00,
2013-09-13 04:57:00,51.3,44.0,30.17,NNE,23,0.0,0.0,76,0.00,,,0.00,WUHU216HW,2013-09-13 09:57:00,
2013-09-13 05:02:00,51.3,44.0,30.17,NNE,23,0.0,0.0,76,0.00,,,0.00,WUHU216HW,2013-09-13 10:02:00,
2013-09-13 05:07:00,51.3,43.7,30.17,NNE,23,0.0,0.0,75,0.00,,,0.00,WUHU216HW,2013-09-13 10:07:00,
2013-09-13 05:12:00,51.1,43.5,30.17,NNE,23,0.7,0.7,75,0.00,,,0.00,WUHU216HW,2013-09-13 10:12:00,
2013-09-13 05:17:00,51.1,43.5,30.17,NNE,23,1.1,1.1,75,0.00,,,0.00,WUHU216HW,2013-09-13 10:17:00,
2013-09-13 05:22:00,50.8,43.1,30.17,NNE,23,1.8,1.8,75,0.00,,,0.00,WUHU216HW,2013-09-13 10:22:00,
2013-09-13 05:27:00,50.6,42.9,30.17,NNE,23,1.1,1.8,75,0.00,,,0.00,WUHU216HW,2013-09-13 10:27:00,
2013-09-13 05:32:00,50.6,43.3,30.17,NNE,23,1.3,1.8,76,0.00,,,0.00,WUHU216HW,2013-09-13 10:32:00,
2013-09-13 05:37:00,50.4,43.5,30.17,North,0,1.1,1.8,77,0.00,,,0.00,WUHU216HW,2013-09-13 10:37:00,
2013-09-13 05:42:00,50.4,43.7,30.17,NNE,23,0.9,1.8,78,0.00,,,0.00,WUHU216HW,2013-09-13 10:42:00,
2013-09-13 05:47:00,50.4,43.7,30.17,NNE,23,2.0,2.0,78,0.00,,,0.00,WUHU216HW,2013-09-13 10:47:00,
2013-09-13 05:52:00,50.0,43.4,30.17,NNE,23,2.5,2.5,78,0.00,,,0.00,WUHU216HW,2013-09-13 10:52:00,
2013-09-13 05:57:00,50.0,43.7,30.17,NNE,23,2.0,2.5,79,0.00,,,0.00,WUHU216HW,2013-09-13 10:57:00,
2013-09-13 06:02:00,50.0,44.1,30.17,NNE,23,2.0,2.5,80,0.00,,,0.00,WUHU216HW,2013-09-13 11:02:00,
2013-09-13 06:07:00,50.0,44.1,30.17,NE,45,2.0,2.5,80,0.00,,,0.00,WUHU216HW,2013-09-13 11:07:00,
2013-09-13 06:12:00,49.9,43.9,30.17,NNE,23,1.8,2.5,80,0.00,,,0.00,WUHU216HW,2013-09-13 11:12:00,
2013-09-13 06:17:00,49.7,43.7,30.17,NE,45,2.0,2.2,80,0.00,,,0.00,WUHU216HW,2013-09-13 11:17:00,
2013-09-13 06:22:00,49.7,43.7,30.17,NNE,23,1.3,2.2,80,0.00,,,0.00,WUHU216HW,2013-09-13 11:22:00,
2013-09-13 06:27:00,49.5,43.6,30.18,NNE,23,1.1,2.0,80,0.00,,,0.00,WUHU216HW,2013-09-13 11:27:00,
2013-09-13 06:32:00,49.3,43.4,30.18,NE,45,1.8,2.0,80,0.00,,,0.00,WUHU216HW,2013-09-13 11:32:00,
2013-09-13 06:37:00,49.3,43.4,30.18,NNE,23,1.3,2.0,80,0.00,,,0.00,WUHU216HW,2013-09-13 11:37:00,
2013-09-13 06:42:00,49.1,43.2,30.18,NNE,23,1.1,2.0,80,0.00,,,0.00,WUHU216HW,2013-09-13 11:42:00,
2013-09-13 06:47:00,49.1,43.5,30.18,NNE,23,1.3,1.6,81,0.00,,,0.00,WUHU216HW,2013-09-13 11:47:00,
2013-09-13 06:52:00,49.1,43.5,30.18,North,0,1.8,1.8,81,0.00,,,0.00,WUHU216HW,2013-09-13 11:52:00,
2013-09-13 06:57:00,49.1,43.5,30.18,North,0,1.3,1.8,81,0.00,,,0.00,WUHU216HW,2013-09-13 11:57:00,
2013-09-13 07:02:00,49.1,43.5,30.18,North,0,0.2,1.6,81,0.00,,,0.00,WUHU216HW,2013-09-13 12:02:00,
2013-09-13 07:07:00,49.0,44.0,30.18,West,270,1.3,2.0,83,0.00,,,0.00,WUHU216HW,2013-09-13 12:07:00,
2013-09-13 07:12:00,48.8,43.8,30.18,WSW,248,1.1,2.0,83,0.00,,,0.00,WUHU216HW,2013-09-13 12:12:00,
2013-09-13 07:17:00,48.6,43.9,30.18,West,270,1.8,2.2,84,0.00,,,0.00,WUHU216HW,2013-09-13 12:17:00,
2013-09-13 07:22:00,48.6,43.9,30.18,WSW,248,1.6,2.2,84,0.00,,,0.00,WUHU216HW,2013-09-13 12:22:00,
2013-09-13 07:27:00,48.6,44.3,30.18,SW,225,0.9,2.0,85,0.00,,,0.00,WUHU216HW,2013-09-13 12:27:00,
2013-09-13 07:32:00,48.6,43.9,30.18,SW,225,0.4,1.3,84,0.00,,,0.00,WUHU216HW,2013-09-13 12:32:00,
2013-09-13 07:37:00,49.0,44.0,30.18,SW,225,0.0,0.7,83,0.00,,,0.00,WUHU216HW,2013-09-13 12:37:00,
2013-09-13 07:42:00,49.3,44.0,30.19,SW,225,0.0,0.4,82,0.00,,,0.00,WUHU216HW,2013-09-13 12:42:00,
2013-09-13 07:47:00,50.0,45.4,30.18,SW,225,0.7,0.7,84,0.00,,,0.00,WUHU216HW,2013-09-13 12:47:00,
2013-09-13 07:52:00,50.4,46.3,30.19,SW,225,1.1,1.8,86,0.00,,,0.00,WUHU216HW,2013-09-13 12:52:00,
2013-09-13 07:57:00,50.8,46.4,30.19,SW,225,1.8,1.8,85,0.00,,,0.00,WUHU216HW,2013-09-13 12:57:00,
2013-09-13 08:02:00,51.1,46.7,30.19,SW,225,1.3,2.0,85,0.00,,,0.00,WUHU216HW,2013-09-13 13:02:00,
2013-09-13 08:07:00,51.5,46.8,30.19,SW,225,0.7,2.0,84,0.00,,,0.00,WUHU216HW,2013-09-13 13:07:00,
2013-09-13 08:12:00,51.7,46.6,30.19,SW,225,0.7,1.6,83,0.00,,,0.00,WUHU216HW,2013-09-13 13:12:00,
2013-09-13 08:17:00,52.2,47.2,30.19,South,180,1.3,1.3,83,0.00,,,0.00,WUHU216HW,2013-09-13 13:17:00,
2013-09-13 08:22:00,52.9,47.3,30.19,SSE,158,1.6,1.6,81,0.00,,,0.00,WUHU216HW,2013-09-13 13:22:00,
2013-09-13 08:27:00,55.8,49.7,30.19,SE,135,0.0,1.8,80,0.00,,,0.00,WUHU216HW,2013-09-13 13:27:00,
2013-09-13 08:32:00,59.9,52.0,30.19,SSW,203,0.2,1.8,75,0.00,,,0.00,WUHU216HW,2013-09-13 13:32:00,
2013-09-13 08:37:00,62.8,51.3,30.19,SE,135,0.7,1.6,66,0.00,,,0.00,WUHU216HW,2013-09-13 13:37:00,
2013-09-13 08:42:00,63.7,50.1,30.19,South,180,1.8,2.7,61,0.00,,,0.00,WUHU216HW,2013-09-13 13:42:00,
2013-09-13 08:47:00,65.2,49.5,30.19,South,180,2.7,2.9,57,0.00,,,0.00,WUHU216HW,2013-09-13 13:47:00,
2013-09-13 08:52:00,65.7,48.6,30.19,SSE,158,2.5,2.9,54,0.00,,,0.00,WUHU216HW,2013-09-13 13:52:00,
2013-09-13 08:57:00,65.5,48.4,30.19,South,180,2.5,4.0,54,0.00,,,0.00,WUHU216HW,2013-09-13 13:57:00,
2013-09-13 09:02:00,65.7,48.6,30.19,South,180,4.0,4.0,54,0.00,,,0.00,WUHU216HW,2013-09-13 14:02:00,
2013-09-13 09:07:00,66.8,47.1,30.19,SSW,203,4.0,4.7,49,0.00,,,0.00,WUHU216HW,2013-09-13 14:07:00,
2013-09-13 09:12:00,65.9,47.3,30.19,SSW,203,3.4,4.7,51,0.00,,,0.00,WUHU216HW,2013-09-13 14:12:00,
2013-09-13 09:17:00,66.2,47.2,30.19,SSE,158,4.7,5.4,50,0.00,,,0.00,WUHU216HW,2013-09-13 14:17:00,
2013-09-13 09:22:00,65.0,46.4,30.19,SSE,158,3.6,6.0,51,0.00,,,0.00,WUHU216HW,2013-09-13 14:22:00,
2013-09-13 09:27:00,63.9,46.4,30.19,SSE,158,4.9,6.5,53,0.00,,,0.00,WUHU216HW,2013-09-13 14:27:00,
2013-09-13 09:32:00,64.4,46.4,30.20,South,180,4.9,6.7,52,0.00,,,0.00,WUHU216HW,2013-09-13 14:32:00,
2013-09-13 09:37:00,65.0,47.3,30.20,SSW,203,1.1,6.7,53,0.00,,,0.00,WUHU216HW,2013-09-13 14:37:00,
2013-09-13 09:42:00,64.4,45.8,30.20,South,180,5.4,5.6,51,0.00,,,0.00,WUHU216HW,2013-09-13 14:42:00,
2013-09-13 09:47:00,64.4,46.4,30.20,South,180,6.5,6.5,52,0.00,,,0.00,WUHU216HW,2013-09-13 14:47:00,
2013-09-13 09:52:00,65.3,46.7,30.20,SSE,158,4.9,6.5,51,0.00,,,0.00,WUHU216HW,2013-09-13 14:52:00,
2013-09-13 09:57:00,66.1,45.8,30.20,South,180,6.3,6.3,48,0.00,,,0.00,WUHU216HW,2013-09-13 14:57:00,
2013-09-13 10:02:00,65.5,45.8,30.20,South,180,1.8,8.5,49,0.00,,,0.00,WUHU216HW,2013-09-13 15:02:00,
2013-09-13 10:07:00,66.4,45.5,30.20,SSE,158,5.4,8.5,47,0.00,,,0.00,WUHU216HW,2013-09-13 15:07:00,
2013-09-13 10:12:00,65.9,45.0,30.20,ENE,68,3.6,6.0,47,0.00,,,0.00,WUHU216HW,2013-09-13 15:12:00,
2013-09-13 10:17:00,65.7,44.8,30.20,SSE,158,10.5,10.5,47,0.00,,,0.00,WUHU216HW,2013-09-13 15:17:00,
2013-09-13 10:22:00,66.6,45.7,30.20,ESE,113,2.2,10.5,47,0.00,,,0.00,WUHU216HW,2013-09-13 15:22:00,
2013-09-13 10:27:00,68.6,46.3,30.20,SSE,158,0.9,4.5,45,0.00,,,0.00,WUHU216HW,2013-09-13 15:27:00,
2013-09-13 10:32:00,68.8,45.3,30.20,ESE,113,5.1,6.3,43,0.00,,,0.00,WUHU216HW,2013-09-13 15:32:00,
2013-09-13 10:37:00,68.8,45.3,30.20,North,0,1.6,6.3,43,0.00,,,0.00,WUHU216HW,2013-09-13 15:37:00,
2013-09-13 10:42:00,70.0,46.5,30.19,South,180,2.7,3.6,43,0.00,,,0.00,WUHU216HW,2013-09-13 15:42:00,
2013-09-13 10:47:00,70.0,45.8,30.19,SW,225,2.5,5.8,42,0.00,,,0.00,WUHU216HW,2013-09-13 15:47:00,
2013-09-13 10:52:00,67.1,43.8,30.20,SSE,158,7.6,7.8,43,0.00,,,0.00,WUHU216HW,2013-09-13 15:52:00,
2013-09-13 10:57:00,66.6,43.9,30.19,SSE,158,2.2,7.8,44,0.00,,,0.00,WUHU216HW,2013-09-13 15:57:00,
2013-09-13 11:02:00,66.4,43.7,30.19,South,180,0.9,7.6,44,0.00,,,0.00,WUHU216HW,2013-09-13 16:02:00,
2013-09-13 11:07:00,68.4,44.9,30.19,ESE,113,3.1,6.3,43,0.00,,,0.00,WUHU216HW,2013-09-13 16:07:00,
2013-09-13 11:12:00,71.5,47.7,30.20,NNE,23,2.5,4.0,43,0.00,,,0.00,WUHU216HW,2013-09-13 16:12:00,
2013-09-13 11:17:00,71.6,45.4,30.19,SE,135,4.7,8.7,39,0.00,,,0.00,WUHU216HW,2013-09-13 16:17:00,
2013-09-13 11:22:00,69.8,44.5,30.19,South,180,4.9,8.7,40,0.00,,,0.00,WUHU216HW,2013-09-13 16:22:00,
2013-09-13 11:27:00,70.2,46.0,30.19,South,180,1.6,8.3,42,0.00,,,0.00,WUHU216HW,2013-09-13 16:27:00,
2013-09-13 11:32:00,70.2,44.8,30.19,ESE,113,9.4,9.4,40,0.00,,,0.00,WUHU216HW,2013-09-13 16:32:00,
2013-09-13 11:37:00,67.7,44.3,30.19,East,90,2.9,9.4,43,0.00,,,0.00,WUHU216HW,2013-09-13 16:37:00,
2013-09-13 11:42:00,68.8,44.6,30.19,SE,135,6.9,7.2,42,0.00,,,0.00,WUHU216HW,2013-09-13 16:42:00,
2013-09-13 11:47:00,69.3,45.2,30.19,SE,135,1.8,9.2,42,0.00,,,0.00,WUHU216HW,2013-09-13 16:47:00,
2013-09-13 11:52:00,69.3,45.2,30.19,SSW,203,3.6,9.2,42,0.00,,,0.00,WUHU216HW,2013-09-13 16:52:00,
2013-09-13 11:57:00,70.9,46.0,30.19,SSE,158,1.1,6.7,41,0.00,,,0.00,WUHU216HW,2013-09-13 16:57:00,
2013-09-13 12:02:00,73.4,47.0,30.18,NNE,23,3.1,3.1,39,0.00,,,0.00,WUHU216HW,2013-09-13 17:02:00,
2013-09-13 12:07:00,74.7,45.1,30.18,SSE,158,2.5,3.1,35,0.00,,,0.00,WUHU216HW,2013-09-13 17:07:00,
2013-09-13 12:12:00,75.2,47.8,30.18,North,0,1.6,3.4,38,0.00,,,0.00,WUHU216HW,2013-09-13 17:12:00,
2013-09-13 12:17:00,76.1,45.6,30.18,SE,135,4.9,4.9,34,0.00,,,0.00,WUHU216HW,2013-09-13 17:17:00,
2013-09-13 12:22:00,72.7,44.8,30.17,SE,135,3.8,4.9,37,0.00,,,0.00,WUHU216HW,2013-09-13 17:22:00,
2013-09-13 12:27:00,73.6,47.1,30.17,NE,45,1.8,4.9,39,0.00,,,0.00,WUHU216HW,2013-09-13 17:27:00,
2013-09-13 12:32:00,75.2,46.3,30.17,East,90,0.9,4.9,36,0.00,,,0.00,WUHU216HW,2013-09-13 17:32:00,
2013-09-13 12:37:00,75.6,47.3,30.17,SSW,203,1.8,4.9,37,0.00,,,0.00,WUHU216HW,2013-09-13 17:37:00,
2013-09-13 12:42:00,75.4,44.9,30.17,SSE,158,3.4,6.5,34,0.00,,,0.00,WUHU216HW,2013-09-13 17:42:00,
2013-09-13 12:47:00,73.8,45.7,30.16,SSW,203,4.0,6.5,37,0.00,,,0.00,WUHU216HW,2013-09-13 17:47:00,
2013-09-13 12:52:00,73.3,44.6,30.16,South,180,8.5,9.4,36,0.00,,,0.00,WUHU216HW,2013-09-13 17:52:00,
2013-09-13 12:57:00,71.6,44.7,30.16,SSE,158,8.9,9.4,38,0.00,,,0.00,WUHU216HW,2013-09-13 17:57:00,
2013-09-13 13:02:00,70.7,44.6,30.15,SSE,158,6.7,10.5,39,0.00,,,0.00,WUHU216HW,2013-09-13 18:02:00,
2013-09-13 13:07:00,72.2,46.5,30.15,ENE,68,4.7,10.5,40,0.00,,,0.00,WUHU216HW,2013-09-13 18:07:00,
2013-09-13 13:12:00,75.2,47.1,30.15,WSW,248,0.4,4.7,37,0.00,,,0.00,WUHU216HW,2013-09-13 18:12:00,
2013-09-13 13:17:00,75.8,45.3,30.15,ENE,68,4.5,4.5,34,0.00,,,0.00,WUHU216HW,2013-09-13 18:17:00,
2013-09-13 13:22:00,76.5,45.9,30.15,ENE,68,2.9,4.5,34,0.00,,,0.00,WUHU216HW,2013-09-13 18:22:00,
2013-09-13 13:27:00,77.4,46.0,30.15,ENE,68,0.9,4.5,33,0.00,,,0.00,WUHU216HW,2013-09-13 18:27:00,
2013-09-13 13:32:00,78.3,45.9,30.14,NE,45,2.5,6.0,32,0.00,,,0.00,WUHU216HW,2013-09-13 18:32:00,
2013-09-13 13:37:00,79.7,48.0,30.14,NNE,23,3.1,6.0,33,0.00,,,0.00,WUHU216HW,2013-09-13 18:37:00,
2013-09-13 13:42:00,80.1,46.7,30.14,NNW,338,1.8,4.7,31,0.00,,,0.00,WUHU216HW,2013-09-13 18:42:00,
2013-09-13 13:47:00,80.5,47.8,30.13,North,0,3.4,3.4,32,0.00,,,0.00,WUHU216HW,2013-09-13 18:47:00,
2013-09-13 13:52:00,81.0,47.5,30.13,North,0,3.4,4.0,31,0.00,,,0.00,WUHU216HW,2013-09-13 18:52:00,
2013-09-13 13:57:00,81.2,47.6,30.13,NE,45,4.0,5.8,31,0.00,,,0.00,WUHU216HW,2013-09-13 18:57:00,
2013-09-13 14:02:00,80.8,46.6,30.13,ENE,68,3.4,5.8,30,0.00,,,0.00,WUHU216HW,2013-09-13 19:02:00,
2013-09-13 14:07:00,79.2,46.7,30.13,NNE,23,4.0,4.0,32,0.00,,,0.00,WUHU216HW,2013-09-13 19:07:00,
2013-09-13 14:12:00,80.5,47.8,30.13,North,0,4.3,4.3,32,0.00,,,0.00,WUHU216HW,2013-09-13 19:12:00,
2013-09-13 14:17:00,80.8,47.3,30.13,NNW,338,2.9,4.3,31,0.00,,,0.00,WUHU216HW,2013-09-13 19:17:00,
2013-09-13 14:22:00,81.0,46.7,30.12,SSE,158,2.9,3.4,30,0.00,,,0.00,WUHU216HW,2013-09-13 19:22:00,
2013-09-13 14:27:00,80.1,47.5,30.12,North,0,3.6,4.3,32,0.00,,,0.00,WUHU216HW,2013-09-13 19:27:00,
2013-09-13 14:32:00,81.4,47.0,30.12,NNE,23,1.6,4.3,30,0.00,,,0.00,WUHU216HW,2013-09-13 19:32:00,
2013-09-13 14:37:00,81.4,47.0,30.12,NE,45,4.3,4.3,30,0.00,,,0.00,WUHU216HW,2013-09-13 19:37:00,
2013-09-13 14:42:00,80.1,46.0,30.12,ENE,68,5.6,5.8,30,0.00,,,0.00,WUHU216HW,2013-09-13 19:42:00,
2013-09-13 14:47:00,78.5,46.1,30.12,ENE,68,4.9,8.1,32,0.00,,,0.00,WUHU216HW,2013-09-13 19:47:00,
2013-09-13 14:52:00,78.7,46.3,30.11,North,0,2.7,8.1,32,0.00,,,0.00,WUHU216HW,2013-09-13 19:52:00,
2013-09-13 14:57:00,79.7,46.5,30.11,NNE,23,1.6,6.9,31,0.00,,,0.00,WUHU216HW,2013-09-13 19:57:00,
2013-09-13 15:02:00,80.8,47.3,30.11,NNW,338,1.1,6.9,31,0.00,,,0.00,WUHU216HW,2013-09-13 20:02:00,
2013-09-13 15:07:00,80.1,46.0,30.11,NE,45,2.5,4.7,30,0.00,,,0.00,WUHU216HW,2013-09-13 20:07:00,
2013-09-13 15:12:00,78.3,45.9,30.10,NE,45,2.9,5.8,32,0.00,,,0.00,WUHU216HW,2013-09-13 20:12:00,
2013-09-13 15:17:00,79.9,45.8,30.10,East,90,4.3,5.8,30,0.00,,,0.00,WUHU216HW,2013-09-13 20:17:00,
2013-09-13 15:22:00,79.4,45.3,30.10,SE,135,1.6,5.1,30,0.00,,,0.00,WUHU216HW,2013-09-13 20:22:00,
2013-09-13 15:27:00,80.1,46.7,30.10,NNE,23,1.8,4.7,31,0.00,,,0.00,WUHU216HW,2013-09-13 20:27:00,
2013-09-13 15:32:00,80.6,46.4,30.10,North,0,2.2,3.1,30,0.00,,,0.00,WUHU216HW,2013-09-13 20:32:00,
2013-09-13 15:37:00,81.4,47.0,30.10,NNE,23,2.9,3.1,30,0.00,,,0.00,WUHU216HW,2013-09-13 20:37:00,
2013-09-13 15:42:00,82.8,47.2,30.09,North,0,1.8,5.4,29,0.00,,,0.00,WUHU216HW,2013-09-13 20:42:00,
2013-09-13 15:47:00,83.0,47.4,30.09,NW,315,3.1,5.4,29,0.00,,,0.00,WUHU216HW,2013-09-13 20:47:00,
2013-09-13 15:52:00,82.4,46.8,30.09,NNW,338,2.7,4.7,29,0.00,,,0.00,WUHU216HW,2013-09-13 20:52:00,
2013-09-13 15:57:00,82.3,46.7,30.09,North,0,2.7,4.3,29,0.00,,,0.00,WUHU216HW,2013-09-13 20:57:00,
2013-09-13 16:02:00,81.7,46.3,30.09,ESE,113,0.2,3.6,29,0.00,,,0.00,WUHU216HW,2013-09-13 21:02:00,
2013-09-13 16:07:00,82.3,46.7,30.09,NNE,23,2.0,4.5,29,0.00,,,0.00,WUHU216HW,2013-09-13 21:07:00,
2013-09-13 16:12:00,82.6,47.0,30.09,NNE,23,0.7,4.5,29,0.00,,,0.00,WUHU216HW,2013-09-13 21:12:00,
2013-09-13 16:17:00,82.1,45.6,30.08,SE,135,2.2,2.5,28,0.00,,,0.00,WUHU216HW,2013-09-13 21:17:00,
2013-09-13 16:22:00,77.6,44.6,30.08,ESE,113,4.9,8.3,31,0.00,,,0.00,WUHU216HW,2013-09-13 21:22:00,
2013-09-13 16:27:00,78.3,46.7,30.08,NE,45,2.2,8.3,33,0.00,,,0.00,WUHU216HW,2013-09-13 21:27:00,
2013-09-13 16:32:00,80.3,46.1,30.08,North,0,2.2,3.1,30,0.00,,,0.00,WUHU216HW,2013-09-13 21:32:00,
2013-09-13 16:37:00,79.9,45.8,30.07,NE,45,1.6,4.0,30,0.00,,,0.00,WUHU216HW,2013-09-13 21:37:00,
2013-09-13 16:42:00,79.6,45.5,30.07,SE,135,2.5,5.6,30,0.00,,,0.00,WUHU216HW,2013-09-13 21:42:00,
2013-09-13 16:47:00,80.3,46.9,30.07,SSW,203,0.4,5.6,31,0.00,,,0.00,WUHU216HW,2013-09-13 21:47:00,
2013-09-13 16:52:00,77.6,44.6,30.07,SSE,158,7.6,10.3,31,0.00,,,0.00,WUHU216HW,2013-09-13 21:52:00,
2013-09-13 16:57:00,74.5,44.1,30.07,SSE,158,11.4,11.4,34,0.00,,,0.00,WUHU216HW,2013-09-13 21:57:00,
2013-09-13 17:02:00,73.8,44.3,30.07,SSE,158,6.9,11.4,35,0.00,,,0.00,WUHU216HW,2013-09-13 22:02:00,
2013-09-13 17:07:00,74.5,44.1,30.07,SSW,203,3.6,7.6,34,0.00,,,0.00,WUHU216HW,2013-09-13 22:07:00,
2013-09-13 17:12:00,75.2,44.0,30.07,SE,135,6.5,7.8,33,0.00,,,0.00,WUHU216HW,2013-09-13 22:12:00,
2013-09-13 17:17:00,74.0,43.7,30.07,SE,135,4.0,7.8,34,0.00,,,0.00,WUHU216HW,2013-09-13 22:17:00,
2013-09-13 17:23:00,74.3,44.7,30.07,South,180,2.5,6.9,35,0.00,,,0.00,WUHU216HW,2013-09-13 22:23:00,
2013-09-13 17:28:00,75.2,44.0,30.07,South,180,7.6,9.2,33,0.00,,,0.00,WUHU216HW,2013-09-13 22:28:00,
2013-09-13 17:33:00,76.7,44.6,30.07,SE,135,1.8,9.2,32,0.00,,,0.00,WUHU216HW,2013-09-13 22:33:00,
2013-09-13 17:38:00,76.7,44.6,30.07,South,180,4.7,5.4,32,0.00,,,0.00,WUHU216HW,2013-09-13 22:38:00,
2013-09-13 17:43:00,79.0,45.0,30.07,SW,225,1.6,4.7,30,0.00,,,0.00,WUHU216HW,2013-09-13 22:43:00,
2013-09-13 17:48:00,79.9,45.8,30.07,WSW,248,2.2,5.4,30,0.00,,,0.00,WUHU216HW,2013-09-13 22:48:00,
2013-09-13 17:53:00,78.5,45.3,30.07,SSE,158,4.9,5.8,31,0.00,,,0.00,WUHU216HW,2013-09-13 22:53:00,
2013-09-13 17:58:00,75.8,44.6,30.07,East,90,2.0,6.3,33,0.00,,,0.00,WUHU216HW,2013-09-13 22:58:00,
2013-09-13 18:03:00,74.2,44.6,30.07,SE,135,3.8,6.3,35,0.00,,,0.00,WUHU216HW,2013-09-13 23:03:00,
2013-09-13 18:08:00,72.9,43.5,30.06,SSE,158,7.6,7.6,35,0.00,,,0.00,WUHU216HW,2013-09-13 23:08:00,
2013-09-13 18:13:00,72.4,44.5,30.06,South,180,8.3,9.2,37,0.00,,,0.00,WUHU216HW,2013-09-13 23:13:00,
2013-09-13 18:18:00,72.7,44.8,30.06,South,180,7.2,9.2,37,0.00,,,0.00,WUHU216HW,2013-09-13 23:18:00,
2013-09-13 18:23:00,72.7,44.1,30.06,SSE,158,7.2,7.6,36,0.00,,,0.00,WUHU216HW,2013-09-13 23:23:00,
2013-09-13 18:28:00,72.0,44.2,30.06,SSE,158,8.5,8.5,37,0.00,,,0.00,WUHU216HW,2013-09-13 23:28:00,
2013-09-13 18:33:00,71.6,44.7,30.06,SSE,158,7.6,8.5,38,0.00,,,0.00,WUHU216HW,2013-09-13 23:33:00,
2013-09-13 18:38:00,70.9,43.9,30.05,SSE,158,5.4,7.6,38,0.00,,,0.00,WUHU216HW,2013-09-13 23:38:00,
2013-09-13 18:43:00,71.1,44.1,30.05,South,180,4.3,7.2,38,0.00,,,0.00,WUHU216HW,2013-09-13 23:43:00,
2013-09-13 18:48:00,71.3,44.3,30.05,SSE,158,6.9,6.9,38,0.00,,,0.00,WUHU216HW,2013-09-13 23:48:00,
2013-09-13 18:53:00,70.4,44.2,30.05,SSE,158,4.7,6.9,39,0.00,,,0.00,WUHU216HW,2013-09-13 23:53:00,
2013-09-13 18:58:00,70.6,44.4,30.05,SSE,158,5.1,6.7,39,0.00,,,0.00,WUHU216HW,2013-09-13 23:58:00,
2013-09-13 19:03:00,70.0,45.2,30.05,SSE,158,4.0,5.1,41,0.00,,,0.00,WUHU216HW,2013-09-14 00:03:00,
2013-09-13 19:08:00,69.5,44.7,30.05,SSE,158,4.0,5.1,41,0.00,,,0.00,WUHU216HW,2013-09-14 00:08:00,
2013-09-13 19:13:00,69.1,45.0,30.05,SSE,158,4.0,4.7,42,0.00,,,0.00,WUHU216HW,2013-09-14 00:13:00,
2013-09-13 19:18:00,68.8,45.3,30.04,SSE,158,2.9,4.0,43,0.00,,,0.00,WUHU216HW,2013-09-14 00:18:00,
2013-09-13 19:23:00,68.8,44.6,30.04,SE,135,2.7,4.0,42,0.00,,,0.00,WUHU216HW,2013-09-14 00:23:00,
2013-09-13 19:29:00,68.4,44.9,30.04,SE,135,2.7,3.4,43,0.00,,,0.00,WUHU216HW,2013-09-14 00:29:00,
2013-09-13 19:34:00,67.5,44.7,30.04,SE,135,3.4,3.4,44,0.00,,,0.00,WUHU216HW,2013-09-14 00:34:00,
2013-09-13 19:39:00,66.8,44.1,30.04,SE,135,2.5,3.8,44,0.00,,,0.00,WUHU216HW,2013-09-14 00:39:00,
2013-09-13 19:44:00,67.1,43.8,30.04,SSE,158,2.0,3.8,43,0.00,,,0.00,WUHU216HW,2013-09-14 00:44:00,
2013-09-13 19:49:00,67.7,44.3,30.04,SSE,158,1.8,2.5,43,0.00,,,0.00,WUHU216HW,2013-09-14 00:49:00,
2013-09-13 19:54:00,67.5,44.1,30.04,SSE,158,2.5,2.5,43,0.00,,,0.00,WUHU216HW,2013-09-14 00:54:00,
2013-09-13 19:59:00,67.3,44.0,30.04,SSE,158,2.7,2.7,43,0.00,,,0.00,WUHU216HW,2013-09-14 00:59:00,
2013-09-13 20:04:00,66.6,44.6,30.04,SE,135,2.0,3.1,45,0.00,,,0.00,WUHU216HW,2013-09-14 01:04:00,
2013-09-13 20:09:00,66.4,44.4,30.04,SE,135,2.5,3.1,45,0.00,,,0.00,WUHU216HW,2013-09-14 01:09:00,
2013-09-13 20:14:00,66.1,44.7,30.04,SE,135,2.7,2.9,46,0.00,,,0.00,WUHU216HW,2013-09-14 01:14:00,
2013-09-13 20:19:00,65.7,44.3,30.04,ESE,113,3.6,3.8,46,0.00,,,0.00,WUHU216HW,2013-09-14 01:19:00,
2013-09-13 20:24:00,65.2,44.9,30.03,ESE,113,4.0,4.7,48,0.00,,,0.00,WUHU216HW,2013-09-14 01:24:00,
2013-09-13 20:29:00,64.8,44.6,30.04,ESE,113,3.4,4.7,48,0.00,,,0.00,WUHU216HW,2013-09-14 01:29:00,
2013-09-13 20:34:00,64.6,45.0,30.04,SE,135,2.5,3.4,49,0.00,,,0.00,WUHU216HW,2013-09-14 01:34:00,
2013-09-13 20:39:00,64.1,45.6,30.04,SE,135,2.5,2.9,51,0.00,,,0.00,WUHU216HW,2013-09-14 01:39:00,
2013-09-13 20:44:00,63.7,45.2,30.04,SE,135,3.4,3.4,51,0.00,,,0.00,WUHU216HW,2013-09-14 01:44:00,
2013-09-13 20:49:00,63.7,45.2,30.04,ESE,113,4.0,4.0,51,0.00,,,0.00,WUHU216HW,2013-09-14 01:49:00,
2013-09-13 20:54:00,63.7,45.2,30.04,ESE,113,3.4,4.0,51,0.00,,,0.00,WUHU216HW,2013-09-14 01:54:00,
2013-09-13 20:59:00,63.2,45.2,30.03,ESE,113,3.8,3.8,52,0.00,,,0.00,WUHU216HW,2013-09-14 01:59:00,
2013-09-13 21:04:00,63.0,45.6,30.04,SE,135,4.0,4.0,53,0.00,,,0.00,WUHU216HW,2013-09-14 02:04:00,
2013-09-13 21:09:00,62.6,46.2,30.04,SE,135,4.0,4.0,55,0.00,,,0.00,WUHU216HW,2013-09-14 02:09:00,
2013-09-13 21:14:00,62.3,46.4,30.04,SE,135,3.4,4.0,56,0.00,,,0.00,WUHU216HW,2013-09-14 02:14:00,
2013-09-13 21:19:00,61.7,46.8,30.04,ESE,113,4.5,4.5,58,0.00,,,0.00,WUHU216HW,2013-09-14 02:19:00,
2013-09-13 21:24:00,61.2,46.8,30.04,ESE,113,4.5,4.7,59,0.00,,,0.00,WUHU216HW,2013-09-14 02:24:00,
2013-09-13 21:29:00,60.7,46.8,30.04,ESE,113,3.6,4.7,60,0.00,,,0.00,WUHU216HW,2013-09-14 02:29:00,
2013-09-13 21:34:00,60.7,46.4,30.04,ESE,113,4.7,4.7,59,0.00,,,0.00,WUHU216HW,2013-09-14 02:34:00,
2013-09-13 21:39:00,60.5,46.2,30.03,SE,135,4.3,4.7,59,0.00,,,0.00,WUHU216HW,2013-09-14 02:39:00,
2013-09-13 21:44:00,59.8,46.4,30.03,SE,135,4.0,4.7,61,0.00,,,0.00,WUHU216HW,2013-09-14 02:44:00,
2013-09-13 21:49:00,59.2,46.2,30.04,SE,135,4.0,4.7,62,0.00,,,0.00,WUHU216HW,2013-09-14 02:49:00,
2013-09-13 21:54:00,59.0,46.0,30.03,SE,135,3.8,4.7,62,0.00,,,0.00,WUHU216HW,2013-09-14 02:54:00,
2013-09-13 21:59:00,59.0,46.0,30.03,ESE,113,2.5,4.3,62,0.00,,,0.00,WUHU216HW,2013-09-14 02:59:00,
2013-09-13 22:04:00,59.4,46.4,30.03,ESE,113,4.5,4.5,62,0.00,,,0.00,WUHU216HW,2013-09-14 03:04:00,
2013-09-13 22:09:00,59.4,46.4,30.03,SE,135,3.4,4.7,62,0.00,,,0.00,WUHU216HW,2013-09-14 03:09:00,
2013-09-13 22:14:00,59.2,46.2,30.03,ESE,113,5.1,5.1,62,0.00,,,0.00,WUHU216HW,2013-09-14 03:14:00,
2013-09-13 22:19:00,58.7,46.1,30.02,ESE,113,5.4,5.4,63,0.00,,,0.00,WUHU216HW,2013-09-14 03:19:00,
2013-09-13 22:24:00,58.1,46.0,30.02,ESE,113,5.4,5.4,64,0.00,,,0.00,WUHU216HW,2013-09-14 03:24:00,
2013-09-13 22:29:00,58.0,46.3,30.02,ESE,113,4.9,5.4,65,0.00,,,0.00,WUHU216HW,2013-09-14 03:29:00,
2013-09-13 22:34:00,58.0,46.6,30.02,ESE,113,4.3,4.9,66,0.00,,,0.00,WUHU216HW,2013-09-14 03:34:00,
2013-09-13 22:39:00,58.0,46.6,30.02,ESE,113,3.6,4.9,66,0.00,,,0.00,WUHU216HW,2013-09-14 03:39:00,
2013-09-13 22:44:00,58.0,46.3,30.02,ESE,113,3.1,4.7,65,0.00,,,0.00,WUHU216HW,2013-09-14 03:44:00,
2013-09-13 22:49:00,58.0,46.3,30.03,SE,135,2.5,3.6,65,0.00,,,0.00,WUHU216HW,2013-09-14 03:49:00,
2013-09-13 22:54:00,58.0,46.3,30.03,SE,135,2.5,2.9,65,0.00,,,0.00,WUHU216HW,2013-09-14 03:54:00,
2013-09-13 22:59:00,58.0,46.3,30.02,SSE,158,3.4,3.4,65,0.00,,,0.00,WUHU216HW,2013-09-14 03:59:00,
2013-09-13 23:01:00,57.8,46.1,30.02,SE,135,3.8,3.8,65,0.00,,,0.00,WUHU216HW,2013-09-14 04:01:00,
2013-09-13 23:06:00,57.2,45.9,30.02,SE,135,3.6,4.0,66,0.00,,,0.00,WUHU216HW,2013-09-14 04:06:00,
2013-09-13 23:11:00,57.1,46.2,30.02,SSE,158,4.7,4.7,67,0.00,,,0.00,WUHU216HW,2013-09-14 04:11:00,
2013-09-13 23:16:00,56.9,46.5,30.02,SE,135,5.1,5.1,68,0.00,,,0.00,WUHU216HW,2013-09-14 04:16:00,
2013-09-13 23:21:00,56.9,46.0,30.02,SSE,158,5.8,6.3,67,0.00,,,0.00,WUHU216HW,2013-09-14 04:21:00,
2013-09-13 23:26:00,56.5,46.1,30.02,SSE,158,6.7,7.2,68,0.00,,,0.00,WUHU216HW,2013-09-14 04:26:00,
2013-09-13 23:31:00,56.2,46.2,30.02,SE,135,6.3,7.2,69,0.00,,,0.00,WUHU216HW,2013-09-14 04:31:00,
2013-09-13 23:36:00,56.2,46.2,30.02,SSE,158,6.0,6.9,69,0.00,,,0.00,WUHU216HW,2013-09-14 04:36:00,
2013-09-13 23:41:00,56.2,46.2,30.02,SSE,158,5.6,6.9,69,0.00,,,0.00,WUHU216HW,2013-09-14 04:41:00,
2013-09-13 23:46:00,56.2,45.7,30.02,SSE,158,5.1,5.6,68,0.00,,,0.00,WUHU216HW,2013-09-14 04:46:00,
2013-09-13 23:51:00,56.2,45.7,30.02,SSE,158,6.0,6.0,68,0.00,,,0.00,WUHU216HW,2013-09-14 04:51:00,
2013-09-13 23:56:00,56.2,45.7,30.02,SSE,158,5.4,6.0,68,0.00,,,0.00,WUHU216HW,2013-09-14 04:56:00,